Tracking 18840 objects as of 18-November-2017
HD Live streaming from Space Station
objects crossing your sky now

HETE 2

Track HETE 2 now!
10-day predictions
HETE 2 is classified as:


NORAD ID: 26561
Int'l Code: 2000-061A
Perigee: 538.6 km
Apogee: 563.6 km
Inclination: 2.0 °
Period: 95.5 minutes
Semi major axis: 6922 km
RCS: 0.631 m2 (medium)
Launch date: October 9, 2000
Source: United States (US)
Launch site: Kwajalein (KWAJ)

Designed to detect and localize gamma-ray bursts.
aabbcc
Your satellite tracking list
Your tracking list is empty




NASA's NSSDC Master Catalog

Two Line Element Set (TLE):
1 26561U 00061A   17321.30088819 +.00001640 +00000-0 +47672-4 0  9999
2 26561 001.9504 341.3515 0018019 105.9434 254.2594 15.07459208938000
Source of the keplerian elements: AFSPC